TimeEDT,TemperatureF,Dew PointF,Humidity,Sea Level PressureIn,VisibilityMPH,Wind Direction,Wind SpeedMPH,Gust SpeedMPH,PrecipitationIn,Events,Conditions,WindDirDegrees,DateUTC
12:54 AM,32.0,26.1,79,30.26,10.0,Calm,Calm,-,N/A,,Clear,0,2012-10-26 04:54:00
1:54 AM,30.0,26.1,85,30.25,10.0,Calm,Calm,-,N/A,,Clear,0,2012-10-26 05:54:00
2:54 AM,30.0,26.1,85,30.25,10.0,ENE,3.5,-,N/A,,Scattered Clouds,60,2012-10-26 06:54:00
3:54 AM,30.0,26.1,85,30.25,10.0,Calm,Calm,-,N/A,,Clear,0,2012-10-26 07:54:00
4:54 AM,30.0,26.1,85,30.26,10.0,NNE,5.8,-,N/A,,Partly Cloudy,30,2012-10-26 08:54:00
5:54 AM,33.1,27.0,78,30.25,10.0,Calm,Calm,-,N/A,,Overcast,0,2012-10-26 09:54:00
6:54 AM,34.0,28.0,79,30.24,10.0,Calm,Calm,-,N/A,,Overcast,0,2012-10-26 10:54:00
7:54 AM,34.0,28.0,79,30.24,10.0,Calm,Calm,-,N/A,,Partly Cloudy,0,2012-10-26 11:54:00
8:54 AM,37.9,28.0,68,30.25,10.0,Calm,Calm,-,N/A,,Clear,0,2012-10-26 12:54:00
9:54 AM,42.1,28.9,60,30.24,10.0,SSE,3.5,-,N/A,,Clear,160,2012-10-26 13:54:00
10:54 AM,46.9,28.9,50,30.23,10.0,SE,4.6,-,N/A,,Mostly Cloudy,140,2012-10-26 14:54:00
11:54 AM,52.0,33.1,49,30.20,10.0,ESE,3.5,-,N/A,,Overcast,120,2012-10-26 15:54:00
12:54 PM,55.9,32.0,40,30.19,10.0,SE,4.6,-,N/A,,Scattered Clouds,130,2012-10-26 16:54:00
1:54 PM,59.0,32.0,36,30.17,10.0,SE,8.1,-,N/A,,Clear,130,2012-10-26 17:54:00
2:54 PM,60.1,30.9,33,30.16,10.0,SSE,4.6,-,N/A,,Clear,160,2012-10-26 18:54:00
3:54 PM,61.0,36.0,39,30.15,10.0,ESE,4.6,-,N/A,,Clear,110,2012-10-26 19:54:00
4:54 PM,57.9,36.0,44,30.14,10.0,ESE,4.6,-,N/A,,Clear,120,2012-10-26 20:54:00
5:54 PM,55.0,37.0,51,30.14,10.0,SE,6.9,-,N/A,,Clear,140,2012-10-26 21:54:00
6:54 PM,53.1,37.0,55,30.14,10.0,SSE,4.6,-,N/A,,Clear,150,2012-10-26 22:54:00
7:54 PM,51.1,37.9,61,30.14,10.0,Calm,Calm,-,N/A,,Clear,0,2012-10-26 23:54:00
9:54 PM,50.0,37.0,61,30.13,10.0,Calm,Calm,-,N/A,,Clear,0,2012-10-27 01:54:00
10:54 PM,46.0,37.0,71,30.12,10.0,Calm,Calm,-,N/A,,Clear,0,2012-10-27 02:54:00
11:54 PM,44.1,37.0,76,30.12,10.0,Calm,Calm,-,N/A,,Clear,0,2012-10-27 03:54:00